Location: Krakow
(50.0830°N, 19.9170°E)
Time: 06:37:26
(UTC+01:00)

SR - Pass Details

Date: 15 February 2023
Orbit: 582 x 867 km, 66.7° (Epoch: 20 March)

Event Time Altitude Azimuth Distance (km) Brightness Sun altitude
Rises 10:38:53 0° 185° (S) 3,178 ? 25.1°
Reaches altitude 10° 10:41:33 10° 175° (S) 2,208 ? 25.2°
Maximum altitude 10:45:53 30° 115° (ESE) 1,220 ? 25.4°
Drops below altitude 10° 10:49:56 10° 55° (NE) 2,064 ? 25.6°
Sets 10:52:21 0° 44° (NE) 2,938 ? 25.8°
